Regional Weather Roundup
Issued by NWS State College, PA

Home | Current Version | Previous Version | Graphics & Text | Print | Product List | Glossary Off
Versions: 1 2 3 4 5 6 7 8 9 10 11 12 13 14 15 16 17 18 19 20 21 22 23 24 25 26 27 28 29 30 31 32 33 34 35 36 37 38 39 40 41 42 43 44 45 46 47 48 49 50

000
ASUS41 KCTP 271603
RWRCTP

REGIONAL WEATHER ROUNDUP
NATIONAL WEATHER SERVICE STATE COLLEGE PA
1100 AM EST SAT DEC 27 2014

Note: "fair" indicates few or no clouds below 12,000 feet with no
significant weather and/or obstructions to visibility.

* = STATION THAT DOES NOT REPORT PRECIPITATION /E.G. RAIN...SNOW...ETC/
    THUNDER OR FOG.

PAZ002>004-007>009-013>016-020>023-029>032-271700-
WESTERN PENNSYLVANIA

CITY           SKY/WX    TMP DP  RH WIND       PRES   REMARKS
ERIE           CLOUDY    48  35  60 S13       30.14F
MEADVILLE      CLOUDY    43  33  68 S8        30.16F
FRANKLIN*      CLOUDY    43  32  65 S9        30.21S
NEW CASTLE       N/A     44  33  65 CALM      30.21F
BEAVER COUNTY  CLOUDY    45  32  61 S6        30.21F
BUTLER*        CLOUDY    45  30  57 SW7       30.24R
PITTSBURGH INT PTSUNNY   47  30  51 SW8       30.22F
PITTSBURGH     PTSUNNY   47  27  45 S13       30.22F
INDIANA*       CLOUDY    45  30  57 SW5       30.27F
LATROBE        PTSUNNY   50  30  46 SW14      30.25F
WASHINGTON CO* NOT AVBL
$$

PAZ004>006-010>012-017>019-024>028-033>037-041-042-045-046-049>053-271700-
CENTRAL PENNSYLVANIA

CITY           SKY/WX    TMP DP  RH WIND       PRES   REMARKS
BRADFORD       SUNNY     42  32  67 S9        30.15F
DUBOIS         CLOUDY    44  31  60 SW8       30.19F
CLEARFIELD     PTSUNNY   43  31  62 S8        30.22F
JOHNSTOWN      PTSUNNY   47  30  51 SW9       30.21F
ALTOONA        SUNNY     49  31  49 S8        30.23F
STATE COLLEGE  SUNNY     45  32  61 CALM      30.24F
WILLIAMSPORT   CLOUDY    37  31  78 CALM      30.27F
SELINSGROVE    PTSUNNY   39  33  79 CALM      30.28F
FT INDIANTOWN  SUNNY     42  33  71 CALM      30.28F
CAPITAL CITY   SUNNY     46  33  60 W5        30.28F
HARRISBURG     PTSUNNY   42  33  70 W3        30.27F
YORK           SUNNY     48  35  60 NW3       30.27F
$$

PAZ038>040-043-044-047-048-054-055-060>062-067>071-271700-
EASTERN PENNSYLVANIA

CITY           SKY/WX    TMP DP  RH WIND       PRES   REMARKS
SCRANTON       MOSUNNY   45  32  60 W3        30.25S
MOUNT POCONO   SUNNY     44  30  57 W9        30.22S
ALLENTOWN      SUNNY     45  32  60 CALM      30.27F
QUAKERTOWN*    NOT AVBL
READING        SUNNY     45  33  63 CALM      30.28F
LANCASTER      SUNNY     43  33  68 W3        30.28F
COATESVILLE    SUNNY     54  36  50 W3        30.28S
POTTSTOWN      SUNNY     46  33  60 W3        30.28F
BLUE BELL      SUNNY     50  34  53 CALM      30.26F
DOYLESTOWN     SUNNY     50  34  54 CALM      30.25F
WILLOW GROVE   NOT AVBL
NORTH PHILA    SUNNY     50  33  52 CALM      30.29F
PHILADELPHIA   MOSUNNY   46  35  65 SW5       30.29F
$$


USA.gov is the U.S. government's official web portal to all federal, state and local government web resources and services.